Little Rock AFB, AR

9:22 PM CST on December 09, 2016 (GMT -0600)
Little Rock Air Force Base

Weather History for KLRF - July, 2013

Change the Weather History Date:

Monday, July 15, 2013

  Actual Average Record
Temperature  
Mean Temperature 80 °F -  
Max Temperature 92 °F 92 °F 106 °F (1980)
Min Temperature 70 °F 69 °F 54 °F (1990)
Cooling Degree Days 16    
Growing Degree Days 30 (Base 50)    
Moisture  
Dew Point 71 °F    
Average Humidity 71    
Maximum Humidity 97    
Minimum Humidity 49    
Precipitation  
Precipitation 0.00 in - - ()
Sea Level Pressure  
Sea Level Pressure 30.12 in    
Wind  
Wind Speed 4 mph (East)    
Max Wind Speed 13 mph    
Max Gust Speed -    
Visibility 10 miles    
Events      
Averages and records for this station are not official NWS values.
T = Trace of Precipitation, MM = Missing Value Source: NWS Daily Summary

Daily Weather History Graph

Daily Weather History Graph

Search for Another Location

Airport or City:

Trip Planner

Search our weather history database for the weather conditions in past years. The results will help you decide how hot, cold, wet, or windy it might be!

Date:

Astronomy

Jul. 15, 2013 Rise Set
Actual Time 6:06 AM CDT 8:22 PM CDT
Civil Twilight 5:37 AM CDT 8:51 PM CDT
Nautical Twilight 5:01 AM CDT 9:26 PM CDT
Astronomical Twilight 4:23 AM CDT 10:05 PM CDT
Moon 1:06 PM CDT (7/15) No Moon Set
Length of Visible Light 15h 13m
Length of Day
14h 16m
Waxing Crescent, 45% of the Moon is Illuminated
Jul 15
Waxing Crescent
Jul 15
First Quarter
Jul 22
Full
Jul 29
Last Quarter
Aug 6
New

Hourly Weather History & Observations

Time (CDT) Temp. Heat Index Dew Point Humidity Pressure Visibility Wind Dir Wind Speed Gust Speed Precip Events Conditions
12:58 AM 76.8 °F - 69.3 °F 77% 30.06 in 10.0 mi ESE 1.2 mph - N/A   Overcast
2:55 AM 73.4 °F - 69.8 °F 88% 30.05 in 10.0 mi NE 1.2 mph - N/A   Clear
3:55 AM 71.6 °F - 69.8 °F 94% 30.05 in 10.0 mi ENE 3.5 mph - N/A   Clear
4:58 AM 70.5 °F - 69.3 °F 96% 30.07 in 10.0 mi ENE 3.5 mph - N/A   Clear
5:58 AM 70.3 °F - 69.1 °F 96% 30.10 in 10.0 mi NE 2.3 mph - N/A   Clear
6:58 AM 70.9 °F - 70.0 °F 97% 30.12 in 10.0 mi NE 4.6 mph - N/A   Clear
7:28 AM 73.4 °F - 69.8 °F 88% 30.13 in 10.0 mi ENE 5.8 mph - N/A   Mostly Cloudy
7:58 AM 75.0 °F - 70.7 °F 86% 30.15 in 10.0 mi Variable 5.8 mph - N/A   Overcast
8:58 AM 78.8 °F - 71.6 °F 78% 30.15 in 10.0 mi Variable 5.8 mph - N/A   Scattered Clouds
9:58 AM 81.9 °F 86.4 °F 71.8 °F 71% 30.16 in 10.0 mi SSE 4.6 mph - N/A   Scattered Clouds
10:18 AM 80.6 °F 84.6 °F 71.6 °F 74% 30.15 in 10.0 mi NNW 1.2 mph - N/A   Mostly Cloudy
10:33 AM 82.4 °F 87.2 °F 71.6 °F 70% 30.15 in 10.0 mi Variable 5.8 mph - N/A   Scattered Clouds
10:48 AM 82.4 °F 87.2 °F 71.6 °F 70% 30.15 in 10.0 mi Variable 4.6 mph - N/A   Mostly Cloudy
10:53 AM 84.2 °F 89.6 °F 71.6 °F 66% 30.15 in 10.0 mi SE 2.3 mph - N/A   Mostly Cloudy
10:58 AM 84.0 °F 88.7 °F 70.9 °F 64% 30.15 in 10.0 mi Variable 3.5 mph - N/A   Scattered Clouds
11:03 AM 84.2 °F 89.6 °F 71.6 °F 66% 30.15 in 10.0 mi East 8.1 mph - N/A   Mostly Cloudy
11:13 AM 86.0 °F 91.8 °F 71.6 °F 62% 30.15 in 10.0 mi East 5.8 mph - N/A   Scattered Clouds
11:28 AM 84.2 °F 89.6 °F 71.6 °F 66% 30.15 in 10.0 mi East 8.1 mph - N/A   Mostly Cloudy
11:58 AM 85.1 °F 90.4 °F 71.1 °F 63% 30.14 in 10.0 mi Variable 3.5 mph - N/A   Mostly Cloudy
12:58 PM 86.5 °F 91.8 °F 70.5 °F 59% 30.13 in 10.0 mi ESE 8.1 mph - N/A   Mostly Cloudy
1:58 PM 89.6 °F 94.7 °F 69.8 °F 52% 30.11 in 10.0 mi SE 8.1 mph - N/A   Scattered Clouds
2:55 PM 91.4 °F 96.8 °F 69.8 °F 49% 30.10 in 10.0 mi East 10.4 mph - N/A   Scattered Clouds
2:58 PM 91.4 °F 96.8 °F 69.8 °F 49% 30.10 in 10.0 mi East 11.5 mph - N/A   Scattered Clouds
3:58 PM 90.1 °F 96.3 °F 70.7 °F 53% 30.09 in 10.0 mi East 5.8 mph - N/A   Partly Cloudy
4:58 PM 91.9 °F 97.9 °F 70.2 °F 49% 30.08 in 10.0 mi East 12.7 mph - N/A   Partly Cloudy
5:58 PM 89.4 °F 95.3 °F 70.9 °F 54% 30.08 in 10.0 mi East 5.8 mph - N/A   Partly Cloudy
6:58 PM 89.2 °F 95.4 °F 71.1 °F 55% 30.10 in 10.0 mi East 9.2 mph - N/A   Clear
7:58 PM 86.5 °F 92.5 °F 71.8 °F 61% 30.11 in 10.0 mi East 5.8 mph - N/A   Clear
8:58 PM 81.5 °F 86.1 °F 72.0 °F 73% 30.12 in 10.0 mi ENE 3.5 mph - N/A   Clear
9:58 PM 78.8 °F - 71.8 °F 79% 30.15 in 10.0 mi ENE 4.6 mph - N/A   Partly Cloudy
10:58 PM 79.0 °F - 72.0 °F 79% 30.17 in 10.0 mi ENE 3.5 mph - N/A   Clear
11:58 PM 77.5 °F - 71.8 °F 82% 30.16 in 10.0 mi ENE 3.5 mph - N/A   Clear